Fayetteville, AR

6:35 AM CDT on March 23, 2017 (GMT -0500)
Drake

Weather History for KFYV - June, 2012

Change the Weather History Date:

Friday, June 1, 2012

  Actual Average Record
Temperature  
Mean Temperature 58 °F 69 °F  
Max Temperature 69 °F 80 °F 92 °F (1951)
Min Temperature 46 °F 58 °F 42 °F (1983)
Degree Days  
Heating Degree Days 8    
Cooling Degree Days 0 5  
Month to date cooling degree days 5  
Year to date cooling degree days 118  
Since 1 June cooling degree days 5  
Growing Degree Days 8 (Base 50)    
Moisture  
Dew Point 49 °F    
Average Humidity 73    
Maximum Humidity 93    
Minimum Humidity 44    
Precipitation  
Precipitation 0.02 in 0.18 in 1.79 in (2008)
Month to date precipitation 0.18  
Year to date precipitation 20.39  
Sea Level Pressure  
Sea Level Pressure 30.00 in    
Wind  
Wind Speed 4 mph (NNW)    
Max Wind Speed 9 mph    
Max Gust Speed -    
Visibility 10 miles    
Events Rain    
T = Trace of Precipitation, MM = Missing Value Source: NWS Daily Summary

Daily Weather History Graph

Daily Weather History Graph

Search for Another Location

Airport or City:

Trip Planner

Search our weather history database for the weather conditions in past years. The results will help you decide how hot, cold, wet, or windy it might be!

Date:

Astronomy

Jun. 01, 2012 Rise Set
Actual Time 6:01 AM CDT 8:28 PM CDT
Civil Twilight 5:31 AM CDT 8:58 PM CDT
Nautical Twilight 4:54 AM CDT 9:34 PM CDT
Astronomical Twilight 4:14 AM CDT 10:15 PM CDT
Moon 5:35 PM CDT (6/1) 3:32 AM CDT (6/1)
Length of Visible Light 15h 26m
Length of Day
14h 27m
Waxing Gibbous, 89% of the Moon is Illuminated
Jun 1
Waxing Gibbous
Jun 4
Full
Jun 11
Last Quarter
Jun 19
New
Jun 26
First Quarter

Hourly Weather History & Observations

Time (CDT) Temp. Dew Point Humidity Pressure Visibility Wind Dir Wind Speed Gust Speed Precip Events Conditions
12:53 AM 55.0 °F 46.9 °F 74% 29.96 in 10.0 mi North 8.1 mph - N/A   Clear
1:53 AM 53.1 °F 46.9 °F 80% 29.96 in 10.0 mi NNW 3.5 mph - N/A   Clear
2:53 AM 51.1 °F 46.0 °F 83% 29.96 in 10.0 mi North 4.6 mph - N/A   Clear
3:53 AM 51.1 °F 46.0 °F 83% 29.97 in 10.0 mi Variable 3.5 mph - N/A   Clear
4:53 AM 50.0 °F 46.0 °F 86% 29.98 in 10.0 mi Calm Calm - N/A   Clear
5:53 AM 46.0 °F 44.1 °F 93% 30.00 in 10.0 mi Calm Calm - N/A   Clear
6:53 AM 48.0 °F 46.0 °F 93% 30.02 in 10.0 mi Calm Calm - N/A   Clear
7:53 AM 52.0 °F 48.0 °F 86% 30.04 in 10.0 mi NNW 4.6 mph - N/A   Clear
8:53 AM 55.9 °F 48.9 °F 77% 30.05 in 10.0 mi North 6.9 mph - N/A   Unknown
9:12 AM 57.2 °F 48.2 °F 72% 30.06 in 10.0 mi North 6.9 mph - N/A   Mostly Cloudy
9:46 AM 57.2 °F 46.4 °F 67% 30.06 in 10.0 mi North 5.8 mph - N/A   Scattered Clouds
9:53 AM 57.0 °F 46.9 °F 69% 30.04 in 10.0 mi North 6.9 mph - N/A   Partly Cloudy
10:53 AM 62.1 °F 48.0 °F 60% 30.03 in 10.0 mi NNW 9.2 mph - N/A   Scattered Clouds
11:53 AM 64.0 °F 46.9 °F 54% 30.02 in 10.0 mi Calm Calm - N/A   Clear
12:53 PM 66.0 °F 46.0 °F 48% 30.00 in 10.0 mi Calm Calm - N/A   Clear
1:53 PM 69.1 °F 46.0 °F 44% 30.00 in 10.0 mi North 6.9 mph - N/A   Clear
2:53 PM 66.9 °F 45.0 °F 45% 30.01 in 10.0 mi WNW 6.9 mph - N/A   Scattered Clouds
3:53 PM 66.0 °F 46.9 °F 50% 30.01 in 10.0 mi WNW 8.1 mph - 0.00 in   Overcast
4:53 PM 62.1 °F 53.1 °F 72% 29.98 in 10.0 mi NNE 3.5 mph - 0.01 in Rain Light Rain
5:53 PM 60.8 °F 51.8 °F 72% 30.02 in 10.0 mi NW 5.8 mph - N/A Rain Light Rain
6:53 PM 61.0 °F 52.0 °F 72% 29.99 in 10.0 mi Calm Calm - 0.00 in   Overcast
7:53 PM 60.1 °F 54.0 °F 80% 29.97 in 10.0 mi ESE 4.6 mph - N/A   Overcast
8:53 PM 59.0 °F 53.1 °F 81% 29.95 in 10.0 mi South 3.5 mph - N/A   Overcast
9:53 PM 59.0 °F 53.1 °F 81% 29.95 in 10.0 mi Calm Calm - N/A   Overcast
10:53 PM 59.0 °F 55.0 °F 87% 29.96 in 10.0 mi Calm Calm - N/A   Overcast
11:53 PM 57.9 °F 55.0 °F 90% 29.95 in 10.0 mi Calm Calm - 0.01 in Rain Light Rain